Weather History for Nebraska City, NE

Change the Weather History Date:

Friday, April 19, 2013

  Actual Average (KSDA) Record (KSDA)
Temperature  
Mean Temperature 38 °F -  
Max Temperature 48 °F 66 °F 86 °F (1955)
Min Temperature 29 °F 43 °F 25 °F (1953)
Degree Days  
Heating Degree Days 26    
Growing Degree Days 0 (Base 50)    
Moisture  
Dew Point 22 °F    
Average Humidity 56    
Maximum Humidity 82    
Minimum Humidity 32    
Precipitation  
Precipitation 0.00 in - - ()
Sea Level Pressure  
Sea Level Pressure 29.96 in    
Wind  
Wind Speed 17 mph (NW)    
Max Wind Speed 25 mph    
Max Gust Speed 34 mph    
Visibility 10 miles    
Events      
Averages and records for this station are not official NWS values.
T = Trace of Precipitation, MM = Missing Value Source: NWS Daily Summary

Daily Weather History Graph

Daily Weather History Graph

Search for Another Location

Airport:

Trip Planner

Search our weather history database for the weather conditions in past years. The results will help you decide how hot, cold, wet, or windy it might be!

Date:

Astronomy

Apr. 19, 2013 Rise Set
Actual Time 6:38 AM CDT 8:07 PM CDT
Civil Twilight 6:09 AM CDT 8:35 PM CDT
Nautical Twilight 5:35 AM CDT 9:10 PM CDT
Astronomical Twilight 4:58 AM CDT 9:47 PM CDT
Moon 1:51 PM CDT (4/19) 2:56 AM CDT (4/19)
Length of Visible Light 14h 26m
Length of Day
13h 28m
First Quarter, 62% of the Moon is Illuminated
Apr 19
First Quarter
Apr 25
Full
May 2
Last Quarter
May 9
New
May 17
First Quarter

Hourly Weather History & Observations

Time (CDT) Temp. Windchill Dew Point Humidity Pressure Visibility Wind Dir Wind Speed Gust Speed Precip Events Conditions
12:15 AM 33.1 °F 22.2 °F 28.0 °F 82% 29.89 in 10.0 mi NW 17.3 mph 25.3 mph N/A   Overcast
12:35 AM 33.3 °F 22.1 °F 27.3 °F 79% 29.89 in 10.0 mi NW 18.4 mph 24.2 mph N/A   Overcast
12:55 AM 33.1 °F 22.6 °F 27.3 °F 79% 29.89 in 10.0 mi NW 16.1 mph 28.8 mph N/A   Overcast
1:15 AM 33.1 °F 21.2 °F 27.3 °F 79% 29.89 in 10.0 mi NW 20.7 mph 29.9 mph N/A   Overcast
1:35 AM 33.1 °F 21.9 °F 27.3 °F 79% 29.88 in 10.0 mi NW 18.4 mph 25.3 mph N/A   Overcast
1:55 AM 33.1 °F 21.5 °F 27.1 °F 79% 29.88 in 10.0 mi NW 19.6 mph 27.6 mph N/A   Overcast
2:15 AM 32.0 °F 20.8 °F 27.0 °F 82% 29.88 in 10.0 mi NW 17.3 mph 25.3 mph N/A   Scattered Clouds
2:35 AM 32.0 °F 21.2 °F 26.6 °F 80% 29.88 in 10.0 mi NW 16.1 mph 24.2 mph N/A   Clear
2:55 AM 32.0 °F 20.5 °F 25.7 °F 78% 29.87 in 10.0 mi NW 18.4 mph 25.3 mph N/A   Clear
3:15 AM 31.8 °F 19.9 °F 24.8 °F 75% 29.87 in 10.0 mi NW 19.6 mph - N/A   Clear
3:35 AM 31.6 °F 21.2 °F 24.4 °F 75% 29.87 in 10.0 mi WNW 15.0 mph 24.2 mph N/A   Clear
3:55 AM 31.1 °F 20.1 °F 23.9 °F 75% 29.88 in 10.0 mi WNW 16.1 mph 21.9 mph N/A   Clear
4:15 AM 31.1 °F 19.7 °F 23.9 °F 75% 29.88 in 10.0 mi WNW 17.3 mph 23.0 mph N/A   Clear
4:35 AM 30.9 °F 19.8 °F 23.7 °F 75% 29.88 in 10.0 mi WNW 16.1 mph 20.7 mph N/A   Clear
4:55 AM 30.7 °F 19.2 °F 23.4 °F 74% 29.88 in 10.0 mi WNW 17.3 mph 24.2 mph N/A   Clear
5:15 AM 30.4 °F 19.5 °F 23.4 °F 75% 29.88 in 10.0 mi WNW 15.0 mph - N/A   Clear
5:55 AM 30.2 °F 18.5 °F 23.0 °F 75% 29.89 in 10.0 mi WNW 17.3 mph 25.3 mph N/A   Clear
6:15 AM 29.8 °F 18.4 °F 23.0 °F 76% 29.89 in 10.0 mi WNW 16.1 mph 20.7 mph N/A   Clear
6:35 AM 30.0 °F 17.9 °F 22.8 °F 75% 29.90 in 10.0 mi WNW 18.4 mph 25.3 mph N/A   Clear
6:55 AM 30.0 °F 17.5 °F 22.5 °F 73% 29.90 in 10.0 mi WNW 19.6 mph 25.3 mph N/A   Clear
7:15 AM 30.2 °F 18.1 °F 22.5 °F 73% 29.91 in 10.0 mi WNW 18.4 mph 24.2 mph N/A   Clear
7:35 AM 30.9 °F 18.7 °F 22.3 °F 70% 29.92 in 10.0 mi WNW 19.6 mph 25.3 mph N/A   Clear
7:55 AM 31.6 °F 20.0 °F 22.1 °F 68% 29.92 in 10.0 mi WNW 18.4 mph 21.9 mph N/A   Clear
8:15 AM 32.0 °F 20.5 °F 21.9 °F 66% 29.93 in 10.0 mi WNW 18.4 mph 26.5 mph N/A   Clear
8:35 AM 32.5 °F 21.9 °F 22.1 °F 65% 29.93 in 10.0 mi WNW 16.1 mph 23.0 mph N/A   Clear
8:55 AM 33.4 °F 22.7 °F 22.5 °F 64% 29.94 in 10.0 mi NW 17.3 mph 25.3 mph N/A   Clear
9:15 AM 34.2 °F 24.0 °F 21.9 °F 61% 29.94 in 10.0 mi WNW 16.1 mph 28.8 mph N/A   Clear
9:55 AM 36.9 °F 27.1 °F 22.6 °F 56% 29.94 in 10.0 mi NW 17.3 mph 24.2 mph N/A   Scattered Clouds
10:15 AM 37.8 °F 28.3 °F 22.3 °F 54% 29.94 in 10.0 mi WNW 17.3 mph 25.3 mph N/A   Mostly Cloudy
10:35 AM 36.5 °F 26.7 °F 21.2 °F 54% 29.95 in 10.0 mi WNW 17.3 mph 23.0 mph N/A   Overcast
10:55 AM 37.9 °F 28.2 °F 20.1 °F 49% 29.95 in 10.0 mi NW 18.4 mph 26.5 mph N/A   Overcast
11:15 AM 40.1 °F 30.7 °F 20.3 °F 45% 29.95 in 10.0 mi NW 19.6 mph 25.3 mph N/A   Mostly Cloudy
11:35 AM 40.8 °F 32.0 °F 21.4 °F 46% 29.95 in 10.0 mi NW 18.4 mph 25.3 mph N/A   Scattered Clouds
11:55 AM 42.1 °F 33.6 °F 21.7 °F 44% 29.96 in 10.0 mi NW 18.4 mph 24.2 mph N/A   Clear
12:15 PM 42.8 °F 34.5 °F 21.6 °F 43% 29.96 in 10.0 mi WNW 18.4 mph 26.5 mph N/A   Clear
12:35 PM 43.7 °F 36.0 °F 21.0 °F 41% 29.96 in 10.0 mi NW 17.3 mph 29.9 mph N/A   Clear
12:55 PM 44.1 °F 35.7 °F 20.3 °F 39% 29.96 in 10.0 mi NW 20.7 mph 29.9 mph N/A   Clear
1:15 PM 45.0 °F 36.0 °F 19.4 °F 36% 29.96 in 10.0 mi WNW 25.3 mph 34.5 mph N/A   Clear
1:35 PM 45.5 °F 37.1 °F 20.3 °F 37% 29.97 in 10.0 mi NW 23.0 mph 31.1 mph N/A   Clear
1:55 PM 45.1 °F 37.1 °F 20.1 °F 37% 29.96 in 10.0 mi NNW 20.7 mph 27.6 mph N/A   Clear
2:15 PM 46.4 °F 39.2 °F 20.3 °F 36% 29.97 in 10.0 mi NW 18.4 mph 31.1 mph N/A   Clear
2:35 PM 46.8 °F - 21.0 °F 36% 29.97 in 10.0 mi NNW 16.1 mph 32.2 mph N/A   Scattered Clouds
2:55 PM 47.5 °F - 21.7 °F 36% 29.97 in 10.0 mi NW 19.6 mph 33.4 mph N/A   Scattered Clouds
3:15 PM 47.7 °F - 20.3 °F 34% 29.97 in 10.0 mi NW 18.4 mph 29.9 mph N/A   Clear
3:35 PM 47.7 °F - 19.9 °F 33% 29.96 in 10.0 mi NNW 21.9 mph 31.1 mph N/A   Clear
3:55 PM 47.7 °F - 19.9 °F 33% 29.97 in 10.0 mi NW 21.9 mph 31.1 mph N/A   Clear
4:15 PM 48.2 °F - 19.4 °F 32% 29.98 in 10.0 mi NW 17.3 mph 26.5 mph N/A   Clear
4:35 PM 48.2 °F - 19.6 °F 32% 29.98 in 10.0 mi NNW 18.4 mph 26.5 mph N/A   Clear
4:55 PM 48.2 °F - 19.6 °F 32% 29.99 in 10.0 mi NW 17.3 mph 25.3 mph N/A   Clear
5:15 PM 48.0 °F - 19.4 °F 32% 29.99 in 10.0 mi NNW 17.3 mph 24.2 mph N/A   Clear
5:35 PM 47.3 °F - 20.7 °F 35% 30.00 in 10.0 mi NW 17.3 mph 21.9 mph N/A   Scattered Clouds
5:55 PM 46.9 °F - 20.3 °F 35% 30.01 in 10.0 mi NNW 18.4 mph 23.0 mph N/A   Scattered Clouds
6:15 PM 46.0 °F 39.6 °F 20.7 °F 37% 30.01 in 10.0 mi NW 15.0 mph - N/A   Clear
6:35 PM 45.5 °F 38.1 °F 19.9 °F 36% 30.02 in 10.0 mi NNW 18.4 mph 25.3 mph N/A   Clear
6:55 PM 44.6 °F 38.4 °F 19.9 °F 37% 30.02 in 10.0 mi NNW 12.7 mph 17.3 mph N/A   Clear
7:15 PM 43.9 °F 37.5 °F 20.7 °F 40% 30.02 in 10.0 mi NNW 12.7 mph 18.4 mph N/A   Clear
7:35 PM 42.8 °F 37.0 °F 21.9 °F 44% 30.03 in 10.0 mi NW 10.4 mph - N/A   Clear
7:55 PM 41.2 °F 36.0 °F 22.1 °F 47% 30.04 in 10.0 mi NNW 8.1 mph - N/A   Clear
8:15 PM 39.9 °F 33.9 °F 21.9 °F 49% 30.04 in 10.0 mi NNW 9.2 mph - N/A   Clear
8:35 PM 37.8 °F 32.5 °F 22.6 °F 54% 30.05 in 10.0 mi North 6.9 mph - N/A   Clear
8:55 PM 36.7 °F 31.2 °F 22.5 °F 56% 30.06 in 10.0 mi North 6.9 mph - N/A   Clear
9:15 PM 36.1 °F 30.6 °F 22.1 °F 57% 30.07 in 10.0 mi NNW 6.9 mph - N/A   Clear
9:35 PM 35.4 °F 29.0 °F 22.8 °F 60% 30.08 in 10.0 mi North 8.1 mph - N/A   Clear
9:55 PM 35.4 °F 29.0 °F 22.6 °F 60% 30.09 in 10.0 mi North 8.1 mph - N/A   Clear
10:15 PM 35.1 °F 28.6 °F 22.6 °F 61% 30.09 in 10.0 mi North 8.1 mph - N/A   Clear
10:35 PM 34.3 °F 29.2 °F 22.6 °F 62% 30.10 in 10.0 mi North 5.8 mph - N/A   Clear
10:55 PM 33.8 °F 27.7 °F 22.5 °F 63% 30.10 in 10.0 mi North 6.9 mph - N/A   Clear
11:15 PM 33.3 °F 27.9 °F 22.1 °F 64% 30.10 in 10.0 mi North 5.8 mph - N/A   Clear
11:35 PM 33.1 °F 26.9 °F 21.9 °F 64% 30.10 in 10.0 mi North 6.9 mph - N/A   Clear
11:55 PM 32.7 °F 27.3 °F 21.9 °F 64% 30.11 in 10.0 mi North 5.8 mph - N/A   Clear